Simultaneous Nadir Overpasses (SNOs) Predictions

Prediction of SNOs between GOES-16 and LANDSAT-8 Satellite Orbit:

Table of predicted SNOs for the next 14.0 days since TLE Epoch: 11/13/2021
Index Date Time (GOES-16) GOES-16 Lat,Lon LANDSAT-8 Lat,Lon Distance(km) Time Diff (sec)
1 11/13/2021 15:09:32 -0.02, -75.20 -0.28, -73.91 146.74 80
2 11/14/2021 03:30:55 0.02, -75.19 -0.83, -79.10 444.85 80
3 11/15/2021 14:57:20 -0.02, -75.22 -0.92, -70.95 484.78 80
4 11/16/2021 03:18:43 0.02, -75.21 -0.19, -76.14 106.61 80
5 11/18/2021 03:03:51 0.01, -75.23 0.45, -73.18 232.35 80
6 11/18/2021 15:25:06 -0.01, -75.25 0.66, -78.34 351.68 80
7 11/20/2021 15:12:54 -0.00, -75.27 0.01, -75.38 12.24 80
8 11/22/2021 15:03:21 0.01, -75.30 -0.58, -72.41 327.65 80
9 11/23/2021 03:22:05 -0.01, -75.29 -0.52, -77.60 263.28 80
10 11/25/2021 03:12:33 -0.02, -75.32 0.13, -74.64 77.06 80
